Location: Casa Rossa
(45.2389°N, 12.2056°E)
Time: 04:30:10
(UTC+00:00)

Meteor 1-13 Rocket - Pass Details

Date: 14 July 2020
Orbit: 830 x 913 km, 81.3° (Epoch: 11 August)

Event Time Altitude Azimuth Distance (km) Brightness Sun altitude
Rises 01:05:52 0° 350° (N) 3,494 8.3 -18.7°
Reaches altitude 10° 01:08:21 10° 352° (N) 2,539 7.5 -18.5°
Maximum altitude 01:14:07 75° 78° (ENE) 894 4.4 -18.0°
Enters shadow 01:18:34 17° 163° (SSE) 2,035 5.8 -17.6°
